Regional Weather Roundup
Issued by NWS

Home | Current Version | Previous Version | Graphics & Text | Print | Product List | Glossary On
Versions: 1 2 3 4 5 6 7 8 9 10 11 12 13 14 15 16 17 18 19 20 21 22 23 24 25 26 27 28 29 30 31 32 33 34 35 36 37 38 39 40 41 42 43 44 45 46 47 48 49 50
000
ASUS43 KMPX 191610
RWRMN
WEATHER ROUNDUP FOR MINNESOTA
NATIONAL WEATHER SERVICE TWIN CITIES/CHANHASSEN MN
1100 AM CDT FRI SEP 19 2014


NOTE: "FAIR" INDICATES FEW OR NO CLOUDS BELOW 12,000 FEET WITH NO
SIGNIFICANT WEATHER AND/OR OBSTRUCTIONS TO VISIBILITY. N/A MEANS
CURRENT SKY AND/OR WEATHER CONDITIONS ARE NOT AVAILABLE.

MNZ060>063-068>070-191700-
   Twin Cities Metro

CITY           SKY/WX    TMP DP  RH WIND       PRES   REMARKS
TWIN CITIES    CLOUDY    66  56  70 S18G26    29.81F
ST PAUL        CLOUDY    66  56  70 SE15G21   29.82F
CRYSTAL        CLOUDY    67  55  65 S18G31    29.78F
BLAINE         CLOUDY    64  55  72 SE13G18   29.80F
LAKEVILLE      CLOUDY    64  57  77 S14G22    29.82F
EDEN PRAIRIE   CLOUDY    66  57  72 S16       29.80F
SOUTH ST PAUL  CLOUDY    65  55  68 S9G16     29.82F
LAKE ELMO      CLOUDY    63  55  77 S12G17    29.84F
$$
MNZ001>005-007-008-013>017-022>024-027-028-191700-
   Northwest Minnesota

CITY           SKY/WX    TMP DP  RH WIND       PRES   REMARKS
BEMIDJI        LGT RAIN  59  58  94 S13G23    29.63S
HALLOCK        DRIZZLE   64  63  94 S13       29.52R
ROSEAU         CLOUDY    64  57  77 S21G28    29.50F
WARROAD        CLOUDY    63  59  88 S13G22    29.52F
THIEF RVR FALL CLOUDY    63  57  82 S18G29    29.58R
CROOKSTON      LGT RAIN  61  59  94 S17G26    29.57F
FOSSTON        RAIN      57  57 100 S22G28    29.62S
DETROIT LAKES  CLOUDY    63  59  88 S10       29.68S
MOORHEAD       CLOUDY    64  64 100 S9        29.65R
PARK RAPIDS    CLOUDY    61  58  90 S16       29.68F
MAHNOMEN       CLOUDY    62  59  90 S13       29.62S
$$
MNZ006-009>011-018-025>026-191700-
   North Central Minnesota

CITY           SKY/WX    TMP DP  RH WIND       PRES   REMARKS
BAUDETTE       LGT RAIN  60  57  89 S9        29.56F
FLAG ISLAND    CLOUDY    57  57 100 S7        29.52R
INTL FALLS     CLOUDY    61  56  83 S7        29.59F
WASKISH        CLOUDY    61  57  88 S13G20    29.61R
BIG FORK       LGT RAIN  59  57  94 S18G25    29.64S
LONGVILLE      CLOUDY    59  57  94 S13G20    29.68F
GRAND RAPIDS   CLOUDY    57  54  88 S12       29.71R
CRANE LAKE     CLOUDY    61  55  82 S7G18     29.63F
ORR            LGT RAIN  61  54  77 S14G22    29.61F
COOK           DRIZZLE   59  55  88 S14       29.65F
WALKER         CLOUDY    60  56  89 S10G16    29.67R
$$
MNZ012-019>021-037-191700-
   Northeast Minnesota

CITY           SKY/WX    TMP DP  RH WIND       PRES   REMARKS
DULUTH         CLOUDY    61  52  72 S20G26    29.73F
ELY            CLOUDY    61  54  77 S14G21    29.68F
HIBBING        LGT RAIN  59  54  83 SW8G18    29.70F
EVELETH        LGT RAIN  57  54  88 S12       29.69F
DULUTH HARBOR  CLOUDY    63  54  72 S15G21    29.75F
TWO HARBORS    CLOUDY    57  52  82 S12       29.75F
SILVER BAY     CLOUDY    57  54  88 S12       29.75F
GRAND MARAIS     N/A     54  50  86 SW5       29.78F
G MARAIS ARPRT CLOUDY    52  46  82 S10G16    29.79F
$$
MNZ029>031-032-039>041-046>048-054>057-064-191700-
   West Central Minnesota

CITY           SKY/WX    TMP DP  RH WIND       PRES   REMARKS
FERGUS FALLS   CLOUDY    63  57  82 S14       29.68F
WHEATON        DRIZZLE   63  57  82 S9        29.70R
MORRIS         PTSUNNY   64  61  88 S9        29.71F
ALEXANDRIA     CLOUDY    62  58  86 S15       29.73F
ELBOW LAKE     CLOUDY    62  58  88 S16       29.70F
WADENA         CLOUDY    63  57  82 S13G20    29.70F
GLENWOOD       PTSUNNY   63  59  88 S15G21    29.73F
APPLETON       CLOUDY    68  61  77 SW8       29.71F
BENSON         CLOUDY    64  61  88 S9        29.71F
ORTONVILLE     CLOUDY    66  61  82 S6        29.69F
MADISON        CLOUDY    70  63  78 SW7       29.71S
WILLMAR        CLOUDY    64  59  82 S5        29.75R
$$
MNZ033>034-036-042>043-049>051-058-059-191700-
   Central Minnesota

CITY           SKY/WX    TMP DP  RH WIND       PRES   REMARKS
ST CLOUD       CLOUDY    64  57  78 S18G26    29.74F
SAUK CENTRE    CLOUDY    61  58  89 S13       29.75S
PAYNESVILLE    CLOUDY    59  57  92 SE9G17    29.76R
AITKIN         CLOUDY    63  55  77 SW10G17   29.73R
PINE RIVER     CLOUDY    61  55  82 S9        29.75F
BRAINERD       CLOUDY    59  56  89 SW15      29.75R FOG
STAPLES        CLOUDY    61  57  88 S8G16     29.73S
LONG PRAIRIE   CLOUDY    61  55  82 S14G21    29.74F
LITTLE FALLS   CLOUDY    61  55  82 S9        29.75R
LITCHFIELD     CLOUDY    63  61  94 S9G18     29.75F FOG
BUFFALO        CLOUDY    64  56  76 S10G22    29.78F
MAPLE LAKE     CLOUDY    64  59  84 S8G18     29.75F
$$
MNZ037-044-045-052-053-191700-
   East Central Minnesota

CITY           SKY/WX    TMP DP  RH WIND       PRES   REMARKS
PRINCETON      CLOUDY    64  57  77 SE23G31   29.74F
MORA           CLOUDY    59  52  77 S17       29.76F
CAMBRIDGE      CLOUDY    64  54  68 S17       29.76F
RUSH CITY      LGT RAIN  61  54  77 S16G22    29.77F
MOOSE LAKE     LGT RAIN  59  54  82 S14G21    29.71F
HINCKLEY       DRIZZLE   59  54  82 S13       29.77F
CLOQUET        CLOUDY    61  54  77 S12G18    29.71F
MCGREGOR       CLOUDY    59  55  88 S12G22    29.74R
$$
MNZ071>073-080-081-089-090-097-098-191700-
   Southwest Minnesota

CITY           SKY/WX    TMP DP  RH WIND       PRES   REMARKS
MONTEVIDEO     CLOUDY    66  63  88 SW9G16    29.72F
GRANITE FALLS  CLOUDY    67  62  84 S15G21    29.73S
CANBY          CLOUDY    66  62  85 SW10G17   29.71S
MARSHALL       CLOUDY    66  61  82 S20G31    29.70F
REDWOOD FALLS  CLOUDY    65  61  87 S18G30    29.73F
OLIVIA         CLOUDY    64  59  82 S14G23    29.73F
PIPESTONE      CLOUDY    64  63  94 S22G28    29.74F FOG
WINDOM         CLOUDY    64  61  88 S18G25    29.78F
WORTHINGTON    CLOUDY    64  61  88 S20G29    29.79F
JACKSON        CLOUDY    64  59  82 S18G26    29.82F
TRACY          CLOUDY    67  62  84 S23G35    29.71F
SLAYTON        CLOUDY    64  62  90 S20G37    29.77F FOG
$$
MNZ065>067-074>077-082>085-091>093-191700-
   South Central Minnesota

CITY           SKY/WX    TMP DP  RH WIND       PRES   REMARKS
MANKATO        PTSUNNY   68  55  64 S21G26    29.80F
NEW ULM        PTSUNNY   63  61  94 S20G26    29.77F
ST JAMES       CLOUDY    64  59  82 S18G28    29.81F
FAIRMONT       CLOUDY    68  54  60 S20       29.82F
GLENCOE        CLOUDY    67  57  70 S12G23    29.77F
FARIBAULT      PTSUNNY   70  54  56 S20G29    29.84F
OWATONNA       PTSUNNY   66  55  68 S20G32    29.85F
WASECA         PTSUNNY   64  54  68 S18G31    29.86F
ALBERT LEA     PTSUNNY   64  55  72 S16G29    29.88F
$$
MNZ078>079-086>088-094>096-191700-
   Southeast Minnesota

CITY           SKY/WX    TMP DP  RH WIND       PRES   REMARKS
ROCHESTER      PTSUNNY   66  54  65 S24G35    29.92F
RED WING       PTSUNNY   66  54  63 S9G17     29.87F
STANTON        CLOUDY    69  56  63 S17G29    29.83F
DODGE CENTER   PTSUNNY   66  57  72 S29G36    29.89F
WINONA         MOSUNNY   70  55  60 S5        29.94F
AUSTIN         CLOUDY    64  55  72 S17G30    29.91F
PRESTON        MOSUNNY   65  58  78 S18G33    29.95F
$$
ABBREVIATIONS USED IN REMARKS
   TC - TEMPERATURES IN CELSIUS
  WCI - WIND CHILL INDEX
   HX - HEAT INDEX
  VSB - VISIBILITY
$$


USA.gov is the U.S. government's official web portal to all federal, state and local government web resources and services.